[Iaude] MPEC F23: 2024 FK [a=2.31,e=0.70,i=0.9,H=25.4]
    mpec at cfa.harvard.edu 
    mpec at cfa.harvard.edu
       
    Tue Mar 19 03:38:01 EDT 2024
    
    
  
M.P.E.C. 2024-F23                                Issued 2024 March 19, 07:36 UT
     The Minor Planet Electronic Circulars contain information on unusual
         minor planets, routine data on comets and natural satellites,
         and occasional editorial announcements.  They are published
    on behalf of Division F of the International Astronomical Union by the
          Minor Planet Center, Smithsonian Astrophysical Observatory,
                          Cambridge, MA 02138, U.S.A.
			  
             Prepared using the Tamkin Foundation Computer Network
                              MPC at CFA.HARVARD.EDU
            URL https://www.minorplanetcenter.net/    ISSN 1523-6714
                                    2024 FK                                     
Observations:
     K24F00K* C2024 03 17.47435312 16 39.951-01 52 37.17         21.54wXEF023F51
     K24F00K  C2024 03 17.48815912 16 40.550-01 52 37.57         21.57wXEF023F51
     K24F00K  C2024 03 17.50195912 16 41.162-01 52 37.97         21.65wXEF023F51
     K24F00K  C2024 03 17.51580212 16 41.775-01 52 38.40         21.83wXEF023F51
     K24F00K  C2024 03 17.60511712 16 46.150-01 52 40.85         21.76GVEF023F51
     K24F00K  C2024 03 17.60593812 16 46.184-01 52 40.83         21.76GVEF023F51
     K24F00K |C2024 03 18.23496012 17 35.090-01 52 05.40         21.6 GVEF023807
     K24F00K |C2024 03 18.24164012 17 35.440-01 52 06.10         21.6 GVEF023807
     K24F00K |C2024 03 18.24816212 17 35.760-01 52 06.10         21.5 GVEF023807
     K24F00K |C2024 03 19.27013012 19 01.230-01 52 36.80         21.6 GVEF023807
     K24F00K |C2024 03 19.27461012 19 01.560-01 52 36.60         21.5 GVEF023807
     K24F00K |C2024 03 19.27893012 19 01.820-01 52 36.40         21.4 GVEF023807
Observer details:
807 Cerro Tololo Observatory, La Serena.  Observers T. Linder, R. Holmes.
    0.61-m f/6.8 Ritchey-Chretien + CCD.
F51 Pan-STARRS 1, Haleakala.  Observers J. Herman, T. Lowe, P. Minguez, A.
    Schultz, I. Smith.  Measurers K. Chambers, T. de Boer, J. Fairlamb, H.
    Gao, M. Huber, C.-C. Lin, E. Magnier, Y. Ramanjooloo, R. Wainscoat, R.
    Weryk.  1.8-m Ritchey-Chretien + CCD.
Orbital elements:
2024 FK                                                  Earth MOID = 0.0031 AU
Epoch 2024 Mar. 31.0 TT = JDT 2460400.5                 MPC                     
M 348.01188              (2000.0)            P               Q                  
n   0.28138022     Peri.   85.68160     -0.10752813     +0.99420192             
a   2.3064303      Node   178.14534     -0.91818371     -0.09911338             
e   0.6961275      Incl.    0.88563     -0.38128253     -0.04170237             
P   3.50           H   25.46          G   0.15           U   9                  
Residuals in seconds of arc
240317 F51  0.0   0.1-    240317 F51  0.1+  0.0     240318 807  0.2-  0.0
240317 F51  0.0   0.0     240317 F51  0.1-  0.1+    240319 807  0.2-  0.3-
240317 F51  0.1+  0.0     240318 807  0.2+  0.3+    240319 807  0.3+  0.1+
240317 F51  0.0   0.0     240318 807  0.2+  0.2-    240319 807  0.2-  0.4+
Ephemeris:
2024 FK                  a,e,i = 2.31, 0.70, 1                   q = 0.7009
Date    TT    R. A. (2000) Decl.     Delta      r    Elong.  Phase     V
2024 02 18    12 00 34.9 -00 59 11   0.5055  1.4418   147.9    21.3    25.8
...
2024 03 04    12 08 04.8 -01 38 14   0.3008  1.2798   161.1    14.6    24.2
...
2024 03 12    12 12 10.6 -01 48 30   0.2021  1.1921   168.1     9.9    23.0
...
2024 03 18    12 17 17.6 -01 52 30   0.1319  1.1263   172.8     6.3    21.8
2024 03 19    12 18 38.3 -01 53 03   0.1204  1.1153   173.5     5.8    21.6
2024 03 20    12 20 14.7 -01 53 37   0.1091  1.1044   174.1     5.3    21.3
...
2024 03 26    12 47 23.6 -02 00 11   0.04212 1.0393   173.2     6.5    19.2
...
2024 04 03    23 25 42.5 +01 37 25   0.04822 0.9550    21.2   157.8    29.0
...
2024 04 18    00 00 07.7 +02 08 48   0.2212  0.8138    27.3   145.5    29.4
A. U. Tomatic                (C) Copyright 2024 MPC           M.P.E.C. 2024-F23
    
    
More information about the Iaude
mailing list